EW1917 Weather Reports


Display with metric or nautical units.
time (UTC)temp
F
wind
direction
speed
MPH
gust
MPH
rain 1hr
in
rain 24hr
in
rain mn
in
humidity
%
barometer
mb
20260506062250 57 109 14.0 14.0 0.06 2.87 0.00 94 1008.5
20260506061753 57 136 2.0 4.0 0.05 2.86 0.00 94 1008.6
20260506061250 57 234 2.0 12.0 0.05 2.86 0.00 94 1008.6
20260506060750 57 312 8.0 16.0 0.03 2.85 0.00 94 1008.6
20260506060250 57 111 8.0 13.0 0.03 2.85 0.00 94 1008.6
20260506051256 56 50 2.0 6.0 0.00 2.97 0.00 96 1008.6
20260506050750 56 232 2.0 9.0 0.00 3.03 0.00 96 1008.6
20260506050253 56 178 4.0 5.0 0.00 3.12 0.00 96 1008.7
20260506044753 55 296 1.0 9.0 0.01 3.25 0.00 96 1008.8
20260506044253 55 138 2.0 3.0 0.01 3.26 0.00 96 1009.0
20260506043750 55 40 0.0 2.0 0.03 3.28 0.00 96 1009.1
20260506043250 55 40 0.0 1.0 0.04 3.29 0.00 96 1009.1
20260506042753 55 40 1.0 2.0 0.07 3.29 0.00 96 1009.3
20260506042250 55 40 1.0 2.0 0.10 3.29 0.00 96 1009.4
20260506041753 55 63 0.0 4.0 0.16 3.29 0.00 96 1009.5
20260506041250 55 74 1.0 3.0 0.20 3.29 0.00 96 1009.6
20260506040759 55 74 0.0 3.0 0.28 3.29 0.00 96 1009.6
20260506040318 55 320 1.0 3.0 0.32 3.29 0.00 96 1009.6
20260506035750 55 313 2.0 7.0 0.40 3.29 0.00 96 1009.7
20260506035250 54 103 0.0 2.0 0.44 3.28 0.00 96 1009.6
20260506034750 54 103 1.0 4.0 0.47 3.28 0.00 96 1009.5
20260506034253 55 138 3.0 3.0 0.51 3.28 0.00 95 1009.6
20260506033750 55 117 1.0 2.0 0.52 3.26 0.00 96 1009.6
20260506033253 55 94 0.0 4.0 0.53 3.25 0.00 96 1009.7
20260506032750 55 99 2.0 6.0 0.53 3.23 0.00 96 1009.8
20260506032250 55 107 2.0 5.0 0.52 3.21 0.00 96 1009.9
20260506031750 55 146 1.0 3.0 0.49 3.14 0.00 96 1010.3
20260506031251 55 5 1.0 2.0 0.50 3.10 0.00 96 1010.0
20260506030750 55 5 0.0 1.0 0.51 3.02 0.00 96 1010.0
20260506030250 55 5 0.0 1.0 0.54 2.98 0.00 96 1009.9
20260506025756 55 5 0.0 2.0 0.47 2.90 0.00 96 1009.9
20260506025250 55 298 1.0 3.0 0.42 2.85 0.00 95 1010.0
20260506024750 55 286 1.0 2.0 0.40 2.83 0.00 95 1010.0
20260506024253 55 240 1.0 2.0 0.36 2.78 0.00 95 1010.1
20260506023750 55 145 1.0 4.0 0.33 2.77 0.00 95 1009.9
20260506023253 55 167 3.0 4.0 0.32 2.75 0.00 95 1009.9
20260506022750 55 58 1.0 6.0 0.30 2.74 0.00 95 1009.8
20260506022250 55 82 5.0 6.0 0.29 2.71 0.00 95 1009.9
20260506021753 55 123 0.0 3.0 0.25 2.68 0.00 95 1010.1
20260506021300 55 183 1.0 3.0 0.22 2.63 0.00 95 1010.1
20260506020800 55 181 1.0 3.0 0.13 2.55 0.00 95 1010.0
20260506020251 56 271 1.0 3.0 0.07 2.48 0.00 95 1009.8
20260506015756 55 265 1.0 3.0 0.07 2.48 0.00 95 1009.7
20260506015253 55 32 0.0 1.0 0.09 2.47 0.00 95 1009.6
20260506014749 55 32 0.0 1.0 0.12 2.47 0.00 95 1009.6
20260506014250 56 32 0.0 2.0 0.20 2.46 0.00 95 1009.6
20260506013752 56 32 2.0 3.0 0.32 2.46 0.00 94 1009.8
20260506013250 56 355 1.0 3.0 0.31 2.45 0.00 94 1009.9
20260506012753 56 128 1.0 1.0 0.30 2.44 0.00 95 1010.1
20260506012250 56 128 0.0 4.0 0.29 2.44 0.00 95 1010.0
20260506011750 56 128 2.0 6.0 0.29 2.43 0.00 94 1010.1
20260506011250 56 144 3.0 3.0 0.29 2.42 0.00 94 1010.3
20260506010751 57 86 0.0 4.0 0.28 2.41 0.00 94 1010.3
20260506010252 57 142 2.0 4.0 0.27 2.40 0.00 94 1010.6
20260506005753 57 27 2.0 2.0 0.26 2.40 0.00 94 1010.6
20260506005253 57 28 1.0 6.0 0.24 2.37 0.00 94 1010.8
20260506004750 58 267 4.0 10.0 0.21 2.34 0.00 94 1010.7
20260506004250 58 153 2.0 11.0 0.23 2.25 0.00 94 1010.6
20260506003756 58 5 2.0 8.0 0.15 2.14 0.00 95 1010.5
20260506003256 58 257 2.0 11.0 0.18 2.14 0.00 95 1010.4
20260506002750 58 163 2.0 12.0 0.19 2.14 0.00 95 1010.3
20260506002250 58 98 3.0 14.0 0.19 2.14 0.00 95 1010.4
20260506001749 58 150 0.0 8.0 0.18 2.13 0.00 95 1010.3
20260506001259 58 206 2.0 7.0 0.19 2.13 0.00 95 1010.5
20260506000753 58 165 0.0 6.0 0.19 2.13 0.00 95 1010.5
20260506000254 57 133 1.0 6.0 0.19 2.13 0.00 94 1010.5
20260505235756 57 163 0.0 1.0 0.19 2.13 0.00 94 1010.6
20260505235253 57 121 0.0 3.0 0.19 2.13 0.00 94 1010.4
20260505234750 58 103 1.0 7.0 0.20 2.13 0.00 94 1010.5
20260505234256 58 105 6.0 6.0 0.09 2.02 0.00 94 1010.8
20260505233756 58 42 1.0 2.0 0.05 1.98 0.00 94 1010.9
20260505233249 58 281 0.0 2.0 0.02 1.95 0.00 94 1011.1
20260505232756 58 234 0.0 2.0 0.01 1.94 0.00 94 1011.1
20260505232250 58 97 2.0 8.0 0.01 1.94 0.00 94 1010.9
20260505231750 58 252 0.0 3.0 0.01 1.94 0.00 94 1011.0
20260505231250 58 287 0.0 2.0 0.00 1.93 0.00 94 1011.2
20260505230750 58 59 1.0 2.0 0.00 1.93 0.00 94 1011.3
20260505230250 58 54 0.0 3.0 0.00 1.93 0.00 94 1011.3
20260505225750 58 256 0.0 3.0 0.00 1.93 0.00 93 1011.3
20260505225251 58 152 2.0 3.0 0.00 1.93 0.00 93 1011.4
20260505224750 58 148 0.0 3.0 0.00 1.92 0.00 93 1011.3
20260505224258 59 200 0.0 5.0 0.00 1.92 0.00 93 1011.3
20260505223750 59 136 2.0 9.0 0.00 1.92 0.00 93 1011.3
20260505223250 59 182 9.0 11.0 0.00 1.92 0.00 93 1011.3
20260505222753 59 145 5.0 7.0 0.00 1.92 0.00 94 1011.3
20260505222255 59 142 3.0 7.0 0.00 1.92 0.00 94 1011.3
20260505221754 59 148 4.0 7.0 0.00 1.92 0.00 94 1011.3
20260505221250 59 144 4.0 3.0 0.00 1.92 0.00 93 1011.3
20260505220749 59 174 1.0 11.0 0.00 1.92 0.00 93 1011.3
20260505220250 59 194 5.0 19.0 0.00 1.92 0.00 93 1011.2
20260505215752 59 181 2.0 11.0 0.00 1.92 0.00 93 1011.3
20260505215250 59 164 5.0 14.0 0.00 1.92 0.00 93 1011.3
20260505214755 59 133 5.0 14.0 0.00 1.92 0.00 93 1011.5
20260505214250 59 139 4.0 12.0 0.00 1.92 0.00 94 1011.5
20260505213750 59 224 0.0 11.0 0.00 1.92 0.00 94 1011.8
20260505213253 59 170 8.0 15.0 0.00 1.92 0.00 94 1011.8
20260505212750 59 152 1.0 6.0 0.00 1.92 0.00 94 1011.9
20260505212252 59 171 6.0 12.0 0.00 1.92 0.00 94 1011.9
20260505211750 59 205 0.0 6.0 0.00 1.92 0.00 94 1011.9
20260505211256 59 131 1.0 8.0 0.00 1.92 0.00 94 1011.9
20260505210749 59 114 4.0 7.0 0.03 1.92 0.00 94 1011.9
20260505210253 59 190 4.0 6.0 0.10 1.92 0.00 94 1011.9
20260505205756 59 209 2.0 10.0 0.17 1.92 0.00 94 1011.8
20260505205252 59 182 2.0 7.0 0.22 1.92 0.00 94 1011.9
20260505204750 59 177 5.0 10.0 0.25 1.92 0.00 94 1011.9
20260505204249 59 112 4.0 11.0 0.28 1.92 0.00 94 1011.8
20260505203750 59 190 6.0 9.0 0.28 1.92 0.00 94 1011.8
20260505203250 59 215 8.0 13.0 0.28 1.92 0.00 94 1011.7
20260505202749 59 155 9.0 13.0 0.28 1.92 0.00 94 1011.6
20260505202251 59 146 4.0 13.0 0.28 1.92 0.00 95 1011.4
20260505201753 59 154 2.0 12.0 0.28 1.92 0.00 94 1011.5
20260505201250 60 107 3.0 6.0 0.28 1.92 0.00 95 1011.5
20260505200751 60 296 0.0 2.0 0.25 1.89 0.00 95 1011.6
20260505200249 60 296 1.0 3.0 0.18 1.82 0.00 95 1011.7
20260505195753 60 264 0.0 4.0 0.11 1.75 0.00 95 1011.7
20260505195254 60 103 0.0 6.0 0.07 1.70 0.00 95 1011.5
20260505194750 60 13 3.0 3.0 0.03 1.66 0.00 95 1011.6
20260505194250 60 301 1.0 12.0 0.00 1.64 0.00 95 1011.4
20260505193753 60 83 5.0 8.0 0.00 1.64 0.00 95 1011.4
20260505193250 60 140 0.0 2.0 0.00 1.64 0.00 95 1011.4
20260505192751 60 192 2.0 3.0 0.00 1.64 0.00 95 1011.4
20260505192254 60 178 0.0 4.0 0.01 1.64 0.00 95 1011.3
20260505191749 60 121 2.0 4.0 0.01 1.64 0.00 95 1011.3
20260505191252 60 136 3.0 6.0 0.02 1.64 0.00 95 1011.4
20260505190754 60 170 2.0 6.0 0.02 1.64 0.00 95 1011.4
20260505190253 60 126 0.0 6.0 0.02 1.64 0.00 95 1011.3
20260505185753 60 163 5.0 5.0 0.02 1.64 0.00 95 1011.3
20260505185256 60 194 1.0 6.0 0.01 1.63 0.00 95 1011.3
20260505184749 60 188 1.0 9.0 0.01 1.63 0.00 95 1011.3
20260505184250 60 194 1.0 7.0 0.01 1.63 0.00 95 1011.2
20260505183752 60 148 1.0 7.0 0.01 1.63 0.00 95 1011.1
20260505183249 60 167 3.0 9.0 0.03 1.63 0.00 95 1011.0
20260505182750 60 153 2.0 4.0 0.05 1.63 0.00 95 1011.1
20260505182252 60 157 1.0 4.0 0.06 1.62 0.00 95 1011.1
20260505181756 60 184 2.0 4.0 0.06 1.62 0.00 95 1011.0
20260505181255 60 140 3.0 4.0 0.06 1.62 0.00 95 1011.0
20260505180750 60 144 0.0 2.0 0.06 1.62 0.00 95 1011.0
20260505180249 60 144 1.0 2.0 0.06 1.62 0.00 94 1011.0
20260505175749 60 190 1.0 5.0 0.06 1.62 0.00 94 1011.0
20260505175249 60 153 2.0 4.0 0.06 1.62 0.00 94 1011.0
20260505174752 60 183 1.0 8.0 0.06 1.62 0.00 94 1011.1
20260505174255 60 200 1.0 6.0 0.07 1.62 0.00 94 1011.0
20260505173749 60 277 0.0 5.0 0.07 1.62 0.00 94 1011.0
20260505173250 60 169 1.0 3.0 0.05 1.60 0.00 94 1010.9
20260505172749 60 355 0.0 3.0 0.03 1.58 0.00 94 1010.9
20260505172253 60 318 2.0 3.0 0.01 1.56 0.00 94 1011.0
20260505171758 60 153 2.0 4.0 0.06 1.56 0.00 94 1010.8
20260505171250 60 78 1.0 2.0 0.11 1.55 0.00 94 1010.8
20260505170749 60 62 2.0 5.0 0.15 1.55 0.00 93 1010.7
20260505170252 61 328 3.0 5.0 0.17 1.55 0.00 93 1010.8
20260505165750 61 132 0.0 4.0 0.17 1.55 0.00 93 1010.7
20260505165249 61 128 1.0 4.0 0.17 1.55 0.00 93 1010.6
20260505164758 61 145 1.0 5.0 0.17 1.55 0.00 93 1010.7
20260505164249 61 141 2.0 3.0 0.16 1.55 0.00 93 1010.7
20260505163750 61 89 2.0 3.0 0.16 1.55 0.00 93 1010.8
20260505163253 61 293 0.0 4.0 0.16 1.55 0.00 92 1010.8
20260505162754 62 278 3.0 3.0 0.16 1.55 0.00 92 1010.7
20260505162256 62 159 4.0 5.0 0.16 1.55 0.00 91 1010.9
20260505161749 62 142 3.0 12.0 0.11 1.50 0.00 91 1010.8
20260505161250 63 178 4.0 15.0 0.05 1.44 0.00 90 1010.5
20260505160749 63 155 2.0 5.0 0.01 1.40 0.00 90 1010.3
20260505160252 63 214 2.0 7.0 0.00 1.38 0.00 89 1010.2
20260505153253 64 156 3.0 8.0 0.00 1.38 0.00 91 1010.2
20260505152753 63 171 1.0 11.0 0.00 1.38 0.00 91 1010.0
20260505152250 63 232 0.0 10.0 0.00 1.38 0.00 91 1010.1
20260505151753 63 290 2.0 10.0 0.01 1.38 0.00 91 1010.1
20260505151252 64 240 4.0 9.0 0.02 1.38 0.00 90 1010.3
20260505150749 64 185 2.0 7.0 0.02 1.38 0.00 93 1010.3
20260505150250 63 170 6.0 10.0 0.02 1.38 0.00 92 1010.3
20260505140259 64 200 6.0 6.0 0.00 1.36 0.00 94 1010.9
20260505130252 60 211 0.0 6.0 0.05 1.36 0.00 95 1011.3
20260505124749 60 169 2.0 5.0 0.03 1.33 0.00 95 1011.5
20260505124249 60 190 4.0 7.0 0.01 1.31 0.00 95 1011.5
20260505123753 59 130 1.0 7.0 0.02 1.31 0.00 96 1011.4
20260505123249 59 141 1.0 6.0 0.03 1.31 0.00 95 1011.5
20260505122753 58 105 4.0 6.0 0.03 1.30 0.00 95 1011.6
20260505122252 58 136 2.0 3.0 0.04 1.30 0.00 95 1011.5
20260505121749 58 132 2.0 4.0 0.07 1.30 0.00 95 1011.6
20260505121249 58 133 1.0 4.0 0.10 1.30 0.00 95 1011.7
20260505120752 58 123 0.0 4.0 0.18 1.30 0.00 95 1011.7
20260505120258 58 86 2.0 4.0 0.25 1.30 0.00 96 1011.7
20260505115755 58 88 2.0 6.0 0.25 1.30 0.00 96 1011.7
20260505115256 58 125 2.0 8.0 0.25 1.29 0.00 96 1011.7
20260505114749 57 121 3.0 8.0 0.25 1.29 0.00 96 1011.8
20260505114255 57 150 2.0 6.0 0.25 1.29 0.00 96 1011.9
20260505113752 57 140 5.0 8.0 0.24 1.29 0.00 95 1012.0
20260505113252 58 146 4.0 8.0 0.23 1.28 0.00 95 1011.9
20260505112750 58 195 2.0 6.0 0.22 1.27 0.00 96 1011.7
20260505112249 58 176 2.0 4.0 0.21 1.25 0.00 96 1011.7
20260505111753 58 233 0.0 7.0 0.18 1.23 0.00 96 1011.5
20260505111255 58 120 1.0 8.0 0.15 1.20 0.00 96 1011.6
20260505110749 58 239 0.0 10.0 0.08 1.12 0.00 95 1012.1
20260505110341 59 277 3.0 6.0 0.01 1.04 0.00 96 1011.8
20260505101748 58 193 0.0 2.0 0.20 1.04 0.00 96 1011.7
20260505101248 57 193 0.0 1.0 0.20 1.04 0.00 96 1011.7
20260505100745 57 200 0.0 2.0 0.19 1.03 0.00 96 1011.7
20260505100245 57 225 3.0 4.0 0.18 1.03 0.00 96 1011.9
20260505095751 57 286 0.0 3.0 0.18 1.02 0.00 96 1011.9
20260505095248 57 271 1.0 2.0 0.18 1.01 0.00 96 1011.9
20260505094749 56 188 0.0 6.0 0.15 0.99 0.00 96 1011.7
20260505094245 56 130 2.0 9.0 0.14 0.97 0.00 96 1011.7
20260505093748 56 329 6.0 10.0 0.04 0.86 0.00 95 1011.9
20260505093245 57 281 6.0 8.0 0.03 0.84 0.00 96 1011.5
20260505092745 57 265 6.0 8.0 0.06 0.84 0.00 96 1011.4
20260505092245 57 292 4.0 5.0 0.07 0.84 0.00 97 1011.4
20260505091748 57 163 4.0 4.0 0.08 0.84 0.00 97 1011.3
20260505091248 56 178 0.0 8.0 0.08 0.84 0.00 96 1011.5
20260505090745 56 171 6.0 7.0 0.08 0.84 0.00 96 1011.4
20260505090248 55 104 7.0 7.0 0.08 0.84 0.00 96 1011.5
20260505085745 55 331 3.0 5.0 0.07 0.83 0.00 96 1011.6
20260505085245 55 330 5.0 5.0 0.07 0.83 0.00 96 1011.5
20260505084748 55 46 2.0 3.0 0.07 0.83 0.00 96 1011.5
20260505084245 55 344 2.0 4.0 0.07 0.83 0.00 96 1011.7
20260505083750 55 67 2.0 9.0 0.06 0.81 0.00 96 1011.7
20260505083245 55 99 6.0 10.0 0.04 0.80 0.00 96 1011.6
20260505082831 55 252 4.0 9.0 0.02 0.77 0.00 96 1011.8
20260505082337 55 322 4.0 6.0 0.00 0.76 0.00 96 1011.3
20260505081737 54 194 0.0 5.0 0.00 0.75 0.00 96 1011.3
20260505081243 54 257 0.0 19.0 0.00 0.75 0.00 96 1011.2
20260505080738 54 101 16.0 16.0 0.01 0.75 0.00 96 1011.2
20260505080237 54 36 0.0 2.0 0.01 0.75 0.00 96 1011.2
20260505075743 54 56 0.0 4.0 0.01 0.75 0.00 96 1011.3
20260505075243 54 283 4.0 6.0 0.03 0.75 0.00 96 1011.4
20260505074742 54 298 0.0 2.0 0.08 0.75 0.00 96 1011.6
20260505074246 54 298 0.0 0.0 0.13 0.75 0.00 95 1011.7
20260505073737 54 298 0.0 1.0 0.15 0.75 0.00 95 1011.8
20260505072737 54 268 2.0 2.0 0.18 0.75 0.00 96 1011.9
20260505072237 54 144 0.0 2.0 0.20 0.75 0.00 96 1012.0
20260505071738 54 134 1.0 4.0 0.19 0.74 0.00 96 1012.0
20260505071237 53 98 3.0 3.0 0.19 0.74 0.00 95 1012.0
20260505070737 53 248 0.0 1.0 0.18 0.74 0.00 95 1012.3
20260505070240 53 249 0.0 3.0 0.19 0.74 0.00 95 1012.3